Weather in Knyazhyi Gory

Russia / Tver Oblast     56°04′35″N   35°13′54″E
temp.,
°C
wind,
m/s
gust,
m/s
humid.,
%
clouds,
%
prec.,
mm/h
press.,
hPa
HPBL,
m
14 june, mon
mon1400:00+14s239118 0.0 100941
03:00+13s119520 0.0 101010
06:00+15ssw128968 0.0 101273
09:00+21wsw016644 0.0 1013647
12:00+24wsw125842 0.8 10141422
15:00+25nne024997 1.1 10131837
18:00+20n358813 2.0 1014173
21:00+17nne23945 2.7 101543
15 june, tue
tue1500:00+15ne22955 0.0 101520
03:00+14ene11950 0.0 101511
06:00+16ene11945 0.0 101450
09:00+21wnw11730 0.0 1014528
12:00+23wnw226621 0.6 10121167
15:00+23w22725 2.6 10111063
18:00+21wnw258943 4.6 1010301
21:00+17nw25923 5.5 101196
16 june, wed
wed1600:00+14wnw35940 0.0 101176
03:00+12nw379467 0.0 1012142
06:00+14nnw3895100 0.0 1013280
09:00+16nnw4785100 0.0 1014512
12:00+21n46480 0.0 10151542
15:00+22n46400 0.0 10162097
18:00+21n36490 0.0 10171702
21:00+14n257016 0.0 101978
17 june, thu
thu1700:00+11n38705 0.0 1021144
03:00+10nne23720 0.0 102357
06:00+12n24700 0.0 1025113
09:00+17nne35540 0.0 1025553
12:00+21ne34440 0.0 10261187
15:00+22ne23420 0.0 10261539
18:00+22e12483 0.0 1025983
21:00+16s22715 0.0 102614
18 june, fri
fri1800:00+15wsw116677 0.0 102712
03:00+13w11740 0.0 102810
06:00+15ssw11740 0.0 102832
09:00+21ssw12522 0.0 1028482
12:00+25se11435 0.0 10271641
15:00+26ese22435 0.0 10261765
18:00+24ese22546 0.0 1026665
21:00+18wsw11822 0.0 102611